Temperature
16 16 16 16 16 16 15 15 15 15 15 15 15 15 15 15 15 15 15 15 15 15 15 15 15 15 15 15 15 15 15 15 15 15 15 15 15 15 15 15 15 15 15
16 16 16 15 15 15 15 15 15 15 15 15 15 15 15 15 15 14 14 14 15 15 14 14 14 14 14 15 15 15 15 15 15 15 15 15 15 15 15 15 15 15 15
16 16 16 16 15 15 15 15 15 15 15 15 15 15 15 14 14 14 14 14 14 14 14 14 14 14 14 14 14 14 14 14 14 14 14 14 14 14 14 15 15 15 15
16 16 15 15 15 15 15 15 15 15 15 14 14 14 14 14 14 14 14 14 14 14 14 14 14 14 14 14 14 14 14 14 14 14 14 14 14 14 14 14 14 14 14
16 15 15 15 15 15 15 15 15 15 14 14 14 14 14 14 14 14 14 14 14 14 14 14 14 14 14 14 14 14 14 14 14 14 14 14 14 14 14 14 14 14 14
15 15 15 15 15 15 15 15 15 14 14 14 14 14 14 14 14 14 14 14 14 13 13 13 13 13 14 14 14 14 14 14 13 13 14 14 14 14 14 14 14 14 13
15 15 15 15 15 15 15 15 14 14 14 14 14 14 14 14 14 14 13 13 13 13 13 13 13 13 13 13 13 13 13 13 13 13 13 13 13 13 13 13 13 13 13
15 15 15 15 15 15 14 14 14 14 14 14 14 14 14 14 13 13 13 13 13 13 13 13 13 13 13 13 13 13 13 13 13 13 13 13 13 13 13 13 13 13 12
15 15 15 15 15 15 14 14 14 14 14 14 14 14 15 15 14 13 13 13 13 13 13 13 12 12 12 12 12 13 13 13 13 12 12 12 12 13 12 13 12 12 12
15 15 15 15 15 14 14 14 14 14 14 14 14 14 14 14 14 14 13 13 13 12 12 12 12 12 12 12 12 12 12 12 12 12 12 12 12 12 12 12 12 12 12
15 15 15 15 14 14 14 14 14 14 14 14 14 14 14 14 14 14 13 13 12 12 12 12 12 12 12 11 12 12 12 12 12 12 12 12 12 12 12 12 12 12 12
15 15 15 15 14 14 14 14 14 14 14 14 14 14 14 14 14 14 13 13 12 12 12 12 12 12 11 11 11 12 12 12 12 12 12 12 12 12 11 11 11 11 11
15 15 15 14 14 14 14 14 14 14 14 14 14 14 14 13 13 13 13 13 12 12 12 12 12 11 11 11 11 11 11 11 11 11 11 11 11 11 11 11 11 11 11
15 15 15 14 14 14 14 14 14 14 14 14 14 14 13 13 13 13 13 13 13 12 12 12 11 11 11 11 11 11 11 11 11 11 11 11 11 11 11 11 11 11 11
15 15 14 14 14 14 14 14 14 14 14 14 13 13 13 13 13 13 13 13 13 13 12 12 11 11 11 11 11 10 10 11 11 10 10 10 10 11 10 10 10 10 10
15 14 14 14 14 14 14 14 14 14 13 13 13 13 13 13 13 13 12 12 12 13 12 12 11 11 11 11 11 10 10 11 11 10 10 10 10 10 10 10 10 10 10
14 14 14 14 14 14 14 14 14 14 13 13 13 13 13 13 13 12 12 12 12 12 12 11 11 11 10 10 10 10 10 10 10 10 10 10 10 10 10 10 10 10 10
14 14 14 14 14 14 14 14 13 13 13 13 13 13 13 13 13 12 12 12 12 12 12 11 11 10 10 10 10 10 10 10 10 10 10 10 10 10 10 10 9 9 9
14 14 14 14 13 13 13 14 13 13 13 13 13 13 13 13 13 12 12 12 12 12 12 11 11 10 10 10 10 10 10 9 9 9 9 9 9 9 9 9 9 9 9
13 13 13 13 13 13 13 13 13 13 13 13 13 13 13 13 12 12 12 12 12 12 11 11 11 10 10 10 10 10 9 9 9 9 9 9 9 9 9 9 9 9 9
13 13 13 13 13 13 13 13 13 13 13 12 13 13 12 12 12 12 12 12 11 11 11 11 10 10 10 10 10 9 9 9 9 9 9 9 9 9 9 9 9 9 8
13 13 13 13 13 13 13 13 13 13 12 12 12 12 12 12 12 12 12 12 11 11 11 11 10 10 10 10 10 9 9 9 9 9 9 9 9 8 8 8 8 9 9
13 13 12 12 12 13 13 13 12 12 12 12 12 12 12 12 12 12 12 12 11 11 11 11 10 10 10 10 10 9 9 9 9 9 9 8 8 8 8 8 8 8 8
12 12 12 12 12 12 12 12 12 12 12 12 12 12 11 11 11 11 11 11 11 11 11 10 10 10 10 10 10 9 9 9 8 8 8 8 8 8 8 8 8 8 8
12 12 12 12 12 12 12 12 12 11 11 11 11 11 11 11 11 11 11 11 11 11 11 10 10 10 10 10 9 9 9 9 8 8 8 8 8 8 8 8 8 8 8
12 12 12 11 11 11 11 11 11 11 11 11 11 11 11 11 11 11 10 10 10 10 10 10 10 10 9 9 9 9 9 8 8 8 8 8 7 7 7 8 8 8 8
Wind_Speed
2 3 3 3 3 4 4 4 4 5 5 6 6 7 7 7 7 7 9 12 12 11 11 11 11 10 10 10 10 9 9 9 8 8 8 8 8 8 7 7 7 7 8
2 2 3 3 3 3 4 4 5 4 4 5 5 6 6 6 7 7 7 9 12 11 11 11 10 10 10 10 10 9 9 8 7 8 8 8 8 8 7 7 7 7 7
2 2 2 3 4 4 5 4 5 4 4 4 5 5 5 6 6 6 6 6 8 11 12 12 11 10 10 10 9 8 8 8 7 8 8 8 8 8 7 7 7 6 7
3 3 2 3 4 4 4 4 3 3 4 4 4 4 4 5 5 6 6 6 6 7 10 12 12 12 11 10 10 9 8 8 8 8 8 7 7 7 7 7 7 7 7
3 3 2 3 4 4 4 3 3 3 4 4 4 4 4 4 4 5 6 6 7 6 7 10 11 12 12 11 11 10 9 9 8 8 8 8 7 7 7 7 8 9 8
3 3 3 3 4 3 3 4 4 3 3 3 4 4 4 4 4 4 5 5 6 7 7 6 6 8 11 11 11 10 10 10 9 9 9 8 8 7 7 8 8 9 9
3 4 3 4 3 3 3 4 4 4 4 3 3 3 4 4 4 4 4 4 5 6 6 6 5 5 7 9 10 10 10 10 9 9 9 9 9 8 8 8 8 9 9
3 4 4 4 4 4 4 4 4 3 3 1 1 1 2 3 3 3 3 3 4 5 5 5 5 5 5 6 10 10 10 10 10 9 9 9 8 8 8 8 8 8 8
3 4 4 4 4 4 4 4 4 4 3 2 0 1 0 1 1 2 3 3 3 3 3 5 5 5 5 6 6 9 10 9 9 9 9 9 8 7 8 8 8 8 8
3 3 4 4 4 4 4 5 4 3 3 2 1 1 1 1 1 1 1 2 3 3 3 3 4 4 4 5 7 10 10 9 9 9 9 9 8 7 8 8 8 8 8
2 3 4 4 4 4 4 4 3 3 3 2 1 1 1 1 2 1 1 1 2 2 2 3 3 4 4 5 5 8 10 10 9 9 9 9 9 8 8 8 8 8 8
2 3 3 3 4 4 4 4 4 4 3 2 2 2 2 2 2 1 2 2 1 1 2 2 2 3 3 4 6 8 8 9 9 10 9 9 9 9 8 8 7 7 7
2 3 3 4 4 4 5 5 4 4 4 3 3 2 2 2 2 2 2 2 1 1 1 1 1 2 2 3 4 5 7 7 8 9 10 10 10 10 9 8 8 8 8
2 3 3 4 4 4 4 4 4 3 3 3 3 3 2 2 2 2 2 2 2 1 1 1 1 1 2 2 4 2 6 7 7 8 9 9 9 10 10 9 9 9 9
2 3 3 4 4 4 4 4 3 4 3 3 3 3 3 2 3 3 3 3 3 2 2 1 1 1 1 2 2 3 4 7 6 7 7 8 8 9 9 8 8 8 9
3 3 4 3 3 3 4 4 4 3 4 3 2 3 3 3 3 3 3 3 3 3 2 1 1 2 2 2 3 3 5 7 6 6 6 6 7 7 8 8 8 8 9
3 3 4 4 4 4 4 4 4 4 4 4 4 4 4 3 3 3 3 3 3 2 2 1 1 2 3 2 3 3 3 3 5 6 5 5 6 6 6 7 8 7 8
3 3 3 4 4 4 4 4 4 5 5 5 4 3 3 3 4 3 3 3 2 2 3 3 2 2 3 3 3 3 2 2 3 6 5 5 5 4 5 5 6 6 6
3 3 4 4 4 4 4 4 5 5 5 4 4 4 4 4 4 3 4 3 2 2 2 3 3 2 2 3 3 2 2 1 2 4 4 4 4 4 4 4 4 4 4
3 3 3 4 4 4 3 4 4 4 4 4 4 4 4 4 4 4 4 4 3 3 3 3 3 3 3 3 3 3 2 2 1 2 2 3 4 4 3 3 3 3 3
3 3 3 3 3 3 3 3 3 3 4 4 3 3 2 1 1 2 2 3 3 3 4 4 4 3 3 3 4 3 3 3 2 2 2 2 3 3 4 4 4 3 3
3 3 3 3 3 2 2 1 3 3 4 3 3 3 2 3 3 3 2 2 2 4 4 4 4 4 4 4 4 4 4 3 3 3 3 3 3 3 3 3 4 5 5
3 3 3 3 3 2 4 2 3 3 3 3 3 3 2 2 3 4 5 6 4 3 4 5 4 4 4 4 5 5 5 4 3 2 3 3 3 3 3 3 5 6 5
4 3 4 3 2 3 4 3 3 4 3 3 3 3 3 3 3 3 4 4 4 4 5 5 4 4 3 3 5 5 5 4 3 3 4 3 3 3 3 4 7 7 7
4 3 3 4 4 4 4 4 3 3 3 3 2 2 3 3 2 3 4 4 4 3 3 4 1 1 2 2 4 4 5 5 4 4 4 3 3 3 4 4 6 9 9
4 3 3 4 4 4 4 5 4 3 3 2 2 2 1 1 2 3 4 5 5 4 4 4 4 4 5 6 8 7 6 5 4 4 4 4 4 3 3 4 4 6 7
Wind_Direction
110 112 113 107 105 106 106 98 94 86 77 70 65 62 62 62 63 65 69 67 65 65 67 68 66 63 65 67 70 70 71 70 70 69 68 66 65 67 72 67 67 64 66
130 127 114 109 112 108 103 108 102 92 83 75 67 63 59 59 58 63 66 75 72 65 63 65 66 67 67 67 69 70 72 72 73 72 71 69 68 67 69 66 68 65 66
146 134 126 121 124 121 116 104 99 92 89 86 78 68 61 54 56 59 62 66 74 75 66 61 60 63 65 64 64 65 67 71 73 74 73 69 68 69 66 65 68 70 70
151 146 136 124 126 125 120 108 103 102 91 82 75 67 67 64 59 60 67 72 66 68 73 65 58 57 57 58 59 60 63 67 69 71 71 68 66 64 62 61 65 78 82
170 157 140 139 134 130 121 114 102 90 86 78 74 68 62 63 62 64 66 67 69 70 72 77 68 56 51 51 55 55 58 64 68 68 68 67 64 62 60 63 69 80 83
166 151 153 149 137 135 129 123 115 103 88 84 77 70 66 69 70 63 61 67 66 66 64 65 72 71 59 51 49 50 55 60 65 66 67 64 62 63 64 68 72 77 79
170 161 167 156 152 148 146 140 126 118 110 101 96 89 87 73 65 71 63 65 68 64 63 64 60 60 70 66 52 48 50 54 56 59 64 62 66 68 65 67 73 77 77
174 177 178 170 165 158 160 151 144 146 138 152 112 123 119 116 74 67 74 68 63 70 60 56 60 61 53 59 63 54 47 49 51 57 60 62 66 69 71 70 75 80 79
169 178 180 175 173 174 171 171 172 173 174 172 260 341 357 74 86 87 67 70 61 58 62 52 49 55 53 52 55 59 49 48 52 57 57 57 60 67 76 75 76 80 83
167 177 175 174 176 182 181 187 189 188 189 201 218 301 323 122 233 144 107 84 69 61 56 55 48 52 55 59 60 51 49 49 53 54 53 52 55 65 74 77 77 78 82
145 163 174 180 183 184 188 189 191 207 211 232 247 231 179 200 233 209 173 137 101 75 67 59 55 54 55 63 64 61 57 52 54 54 53 50 51 57 67 73 74 78 85
153 163 177 187 192 189 191 193 202 211 228 236 253 242 219 226 215 208 202 187 139 92 81 71 57 61 65 72 73 70 65 60 59 56 55 54 52 55 62 67 70 77 86
172 180 186 201 200 194 196 200 208 217 218 230 246 253 249 249 235 229 207 197 200 178 129 98 78 73 77 86 85 86 83 73 69 63 58 56 54 54 55 60 65 76 82
195 193 195 203 202 201 203 202 211 213 220 223 234 243 244 245 240 215 219 210 217 227 198 150 112 83 77 99 93 123 99 91 81 73 67 63 60 58 55 58 68 74 78
198 194 197 203 200 200 209 207 207 208 214 230 239 240 239 234 233 227 221 224 238 242 222 189 167 135 124 94 101 119 101 96 90 83 75 69 67 65 63 61 70 76 79
201 193 200 199 194 195 205 206 208 209 209 221 237 245 241 240 228 223 222 229 247 252 240 188 174 159 134 133 115 113 100 108 100 92 85 79 77 75 73 72 70 76 81
203 197 202 204 197 198 203 200 207 208 214 220 224 229 234 235 224 220 220 221 232 237 209 204 157 158 164 161 140 131 122 122 110 106 99 93 89 85 83 82 78 76 79
206 208 205 203 202 207 208 208 211 215 219 224 229 226 227 220 221 220 220 221 221 226 205 189 180 182 184 178 164 158 147 134 122 113 111 103 100 97 96 91 88 81 78
206 205 202 204 209 209 206 208 218 219 220 228 235 235 231 219 219 211 214 218 216 203 189 186 182 174 184 180 172 167 171 161 153 139 142 137 127 119 113 112 107 98 95
208 207 204 207 208 209 210 208 218 219 223 227 236 242 238 229 228 216 214 212 204 193 188 187 182 183 179 183 192 189 185 185 187 158 144 147 152 159 157 148 139 131 128
212 211 209 209 204 207 206 208 217 221 221 222 227 235 238 229 302 233 223 214 205 199 190 191 190 188 190 186 202 202 197 196 196 195 191 190 182 190 186 188 193 191 183
217 200 203 196 198 200 130 209 240 226 226 223 221 220 209 197 188 181 183 195 214 210 206 203 204 204 208 204 199 200 201 206 215 203 216 216 207 214 209 199 180 187 198
206 198 201 197 201 174 150 182 244 237 229 233 228 217 216 214 209 207 189 186 195 216 227 224 221 226 223 211 203 205 208 215 228 198 208 230 220 227 221 194 174 189 204
203 208 203 205 203 186 163 180 229 229 224 225 218 215 216 216 215 213 200 195 201 210 215 222 227 230 226 208 206 210 207 214 228 205 211 238 227 237 232 212 184 200 214
199 206 205 204 206 198 170 187 223 216 218 222 223 223 225 219 178 219 208 202 200 203 186 196 216 185 147 175 199 199 196 203 219 217 205 234 237 241 240 227 200 198 211
204 206 207 212 211 213 175 189 224 219 215 212 214 219 223 230 188 235 222 219 219 215 205 196 202 199 199 188 197 210 208 215 222 220 198 215 226 227 240 223 215 210 214
Height
1555 1555 1555 1555 1556 1556 1555 1555 1555 1555 1555 1555 1555 1554 1554 1553 1553 1552 1551 1549 1549 1548 1548 1547 1547 1546 1546 1545 1545 1544 1544 1543 1543 1542 1542 1541 1540 1540 1539 1539 1539 1538 1538
1555 1555 1556 1555 1556 1556 1556 1556 1556 1556 1556 1555 1555 1555 1554 1554 1554 1553 1552 1551 1550 1549 1549 1549 1548 1547 1547 1546 1546 1545 1544 1544 1543 1543 1542 1542 1541 1540 1539 1539 1538 1538 1538
1555 1555 1556 1555 1556 1556 1556 1556 1556 1556 1556 1556 1556 1555 1555 1554 1554 1554 1553 1552 1552 1551 1550 1549 1549 1549 1548 1547 1547 1546 1546 1545 1544 1544 1543 1542 1542 1541 1539 1538 1536 1536 1537
1555 1555 1556 1556 1556 1556 1557 1557 1557 1557 1557 1557 1556 1556 1556 1555 1555 1554 1554 1554 1553 1553 1552 1551 1550 1550 1549 1548 1548 1547 1546 1545 1545 1544 1544 1543 1542 1541 1539 1537 1534 1533 1536
1555 1556 1556 1556 1557 1557 1557 1557 1557 1557 1557 1557 1557 1556 1556 1556 1555 1555 1555 1555 1554 1553 1553 1552 1551 1550 1550 1549 1549 1548 1547 1546 1545 1545 1544 1543 1542 1541 1540 1537 1534 1534 1536
1555 1555 1555 1556 1556 1557 1557 1557 1557 1558 1558 1557 1557 1557 1557 1557 1556 1556 1556 1555 1555 1555 1554 1554 1553 1552 1551 1550 1549 1549 1548 1547 1546 1545 1545 1544 1543 1542 1540 1539 1537 1537 1538
1554 1554 1555 1556 1556 1557 1557 1558 1558 1558 1558 1558 1558 1558 1558 1558 1557 1557 1556 1556 1556 1555 1555 1554 1554 1553 1552 1551 1550 1549 1548 1548 1547 1546 1545 1544 1543 1542 1541 1540 1539 1539 1539
1553 1554 1554 1555 1556 1556 1557 1558 1558 1558 1558 1559 1559 1559 1559 1560 1558 1558 1557 1557 1557 1556 1556 1555 1555 1554 1553 1552 1551 1550 1549 1548 1548 1547 1546 1545 1544 1543 1542 1541 1540 1540 1540
1552 1552 1554 1554 1555 1556 1557 1557 1557 1558 1558 1559 1559 1560 1559 1559 1559 1559 1558 1557 1557 1556 1556 1555 1555 1554 1554 1553 1552 1550 1549 1549 1548 1547 1546 1545 1544 1543 1543 1542 1541 1541 1541
1551 1551 1553 1553 1554 1555 1556 1557 1557 1558 1558 1558 1558 1558 1559 1558 1559 1559 1559 1558 1557 1557 1556 1555 1555 1554 1554 1553 1552 1550 1550 1549 1548 1547 1546 1546 1545 1544 1543 1543 1542 1542 1542
1550 1551 1552 1553 1553 1554 1555 1556 1556 1557 1558 1558 1558 1558 1557 1557 1558 1558 1558 1558 1558 1557 1556 1555 1554 1554 1553 1553 1551 1551 1550 1549 1548 1547 1547 1546 1545 1544 1544 1543 1543 1542 1542
1549 1550 1550 1551 1552 1553 1554 1555 1555 1556 1557 1557 1557 1557 1557 1557 1557 1557 1557 1557 1557 1557 1556 1555 1554 1553 1553 1552 1551 1550 1550 1549 1548 1547 1547 1546 1545 1544 1544 1544 1543 1543 1542
1548 1548 1549 1550 1551 1552 1553 1554 1554 1555 1555 1555 1556 1556 1556 1556 1556 1556 1555 1555 1555 1555 1555 1554 1554 1553 1552 1552 1551 1550 1549 1549 1548 1547 1546 1546 1545 1544 1544 1544 1543 1543 1543
1547 1547 1548 1549 1550 1551 1551 1552 1553 1553 1554 1554 1554 1554 1554 1554 1554 1554 1554 1554 1554 1555 1554 1554 1553 1552 1552 1551 1550 1549 1549 1548 1548 1547 1546 1546 1545 1545 1544 1543 1543 1543 1543
1545 1545 1546 1547 1548 1549 1550 1550 1551 1551 1552 1552 1552 1553 1553 1553 1552 1552 1553 1553 1554 1553 1553 1553 1552 1551 1551 1550 1549 1549 1549 1548 1547 1547 1546 1546 1545 1545 1544 1543 1543 1543 1543
1543 1543 1544 1545 1546 1547 1548 1548 1549 1549 1550 1550 1550 1550 1550 1551 1550 1550 1550 1551 1551 1552 1551 1551 1551 1550 1549 1549 1548 1548 1548 1547 1547 1546 1546 1545 1545 1544 1544 1544 1543 1543 1543
1541 1541 1542 1543 1544 1545 1545 1546 1547 1547 1548 1548 1548 1548 1548 1548 1548 1548 1548 1548 1549 1549 1549 1549 1549 1548 1548 1548 1547 1547 1547 1547 1546 1546 1545 1545 1544 1544 1544 1543 1543 1543 1543
1539 1539 1540 1541 1542 1542 1543 1544 1544 1545 1545 1546 1546 1546 1546 1546 1546 1546 1546 1546 1546 1547 1547 1546 1547 1547 1547 1546 1546 1546 1546 1546 1546 1545 1544 1544 1544 1543 1543 1543 1543 1543 1543
1537 1537 1538 1539 1540 1540 1541 1541 1542 1543 1543 1543 1544 1544 1544 1544 1544 1544 1544 1544 1544 1544 1544 1545 1545 1545 1545 1545 1545 1545 1545 1545 1545 1544 1544 1543 1543 1543 1542 1542 1542 1542 1542
1535 1536 1536 1537 1537 1538 1538 1539 1540 1540 1540 1541 1541 1541 1541 1541 1541 1542 1542 1542 1542 1542 1542 1542 1542 1543 1543 1543 1543 1544 1544 1544 1543 1543 1543 1542 1542 1542 1542 1541 1541 1541 1541
1533 1533 1534 1535 1535 1536 1536 1537 1537 1537 1538 1538 1538 1538 1538 1538 1538 1539 1539 1539 1540 1540 1540 1540 1540 1540 1541 1541 1541 1541 1542 1542 1542 1542 1542 1542 1541 1541 1541 1540 1540 1540 1539
1530 1531 1532 1533 1533 1533 1534 1534 1534 1534 1535 1535 1535 1535 1535 1535 1536 1536 1536 1536 1537 1537 1538 1538 1538 1538 1538 1539 1539 1539 1539 1540 1540 1540 1540 1540 1540 1539 1539 1538 1538 1538 1537
1528 1528 1530 1530 1531 1531 1531 1531 1532 1532 1532 1532 1532 1533 1533 1533 1533 1533 1533 1533 1534 1534 1535 1536 1535 1536 1536 1536 1536 1537 1537 1538 1538 1538 1538 1538 1538 1537 1537 1536 1536 1535 1535
1525 1526 1527 1528 1528 1529 1529 1529 1529 1530 1530 1530 1530 1530 1530 1530 1530 1530 1530 1531 1531 1531 1532 1532 1533 1533 1533 1534 1534 1534 1535 1535 1536 1535 1535 1535 1535 1535 1535 1534 1533 1533 1532
1522 1523 1524 1525 1525 1526 1526 1527 1527 1527 1527 1527 1527 1527 1527 1527 1527 1527 1528 1528 1528 1528 1529 1529 1529 1529 1530 1530 1530 1531 1531 1532 1532 1532 1532 1533 1532 1532 1532 1531 1531 1530 1530
1520 1521 1521 1522 1523 1523 1524 1524 1524 1525 1525 1525 1524 1524 1524 1524 1524 1524 1525 1525 1525 1526 1526 1526 1526 1526 1526 1526 1527 1528 1528 1529 1529 1530 1529 1529 1529 1529 1529 1528 1528 1527 1527